User: anonymous   Login
Location: Unspecified
(0.0000°N, 0.0000°E)
Time: 05:20:58
(UTC+00:00)
Language:

COSMOS 2496 - Orbit

View from above orbital plane
View from above orbital plane
View from above satellite
View from above satellite

Ground track
Ground track

The orbit data is extracted from the following two-line orbital elements,

1 39761U 14028A   18146.47875243  .00000002  00000-0 -57323-4 0  9998
2 39761  82.4428 152.6353 0020036  15.2876 344.8817 12.42889170181895
Epoch (UTC): 26 May 2018 11:29:24
Eccentricity: 0.0020036
inclination: 82.4428°
perigee height: 1478 km
apogee height: 1510 km
right ascension of ascending node: 152.6353°
argument of perigee: 15.2876°
revolutions per day: 12.42889170
mean anomaly at epoch: 344.8817°
orbit number at epoch: 18189

The dashed part of the orbit path shows where the satellite is in the earth's shadow,  

DLR